[[{"header":{"parameterUnit":"m.s-1","parameterCategory":1,"la1":30.2991,"la2":30.254,"lo1":-89.0895,"lo2":-89.0444,"dy":0.0017,"dx":0.0017,"nx":28,"ny":28,"refTime":"2024-04-29T09:00:00:Z","depth":0,"parameterNumber":2,"parameterNumberName":"U-component_of_WINDS"},"data":[0,0,0,0,0,0,0,0,0,0,0,0,0,0,0,0,0,0,0,0,0,0,0,0,0,0,0,0,0,0,0,0,0,0,0,0,0,0,0,0,0,0,0,0,0,0,0,0,0,0,0,0,0,0,0,0,0,0,1.2059,1.206,0,1.2108,1.2108,1.2109,1.2096,1.2095,1.2094,1.2093,1.2145,1.2147,1.2149,0,0,0,0,0,0,0,0,0,0,0,0,0,1.1957,1.1959,1.2059,1.206,1.206,1.2108,1.2108,1.2109,1.2096,1.2095,1.2094,1.2093,1.2144,1.2146,1.2149,0,0,0,0,0,0,0,0,0,0,0,0,0,1.2003,1.196,1.2059,1.206,1.206,1.2107,1.2108,1.2109,1.2097,1.2095,1.2094,1.2092,1.2143,1.2146,1.215,1.2199,0,0,1.216,1.2161,0,0,0,0,0,0,0,0,1.2001,1.2007,1.2059,1.206,1.206,1.2094,1.2091,1.2139,1.2097,1.2083,1.2093,1.2092,1.2129,1.2134,1.2146,1.2202,1.2204,1.216,1.2162,1.2164,1.2165,0,0,0,0,0,0,0,1.1997,1.2005,1.2078,1.206,1.2061,1.2058,1.2063,1.21,1.2114,1.2084,1.2083,1.2089,1.2129,1.2143,1.2147,1.2205,1.216,1.2163,1.2165,1.2166,1.2305,1.2307,0,0,0,0,0,0,1.1993,1.2002,1.2077,1.208,1.2026,1.2061,1.2067,1.2085,1.2113,1.2116,1.209,1.2088,1.2138,1.2143,1.2149,1.221,1.2164,1.2167,1.2169,1.2304,1.2306,1.2308,0,0,0,0,0,0,1.1991,1.2,1.2075,1.2041,1.205,1.2064,1.2085,1.2087,1.21,1.2118,1.212,1.2101,1.2137,1.2144,1.2187,1.2211,1.2168,1.2171,1.2302,1.2304,1.2307,1.2331,0,0,0,0,0,0,1.1988,1.1999,1.2018,1.2041,1.2052,1.2112,1.2087,1.2089,1.2106,1.2104,1.2129,1.2132,1.2136,1.2182,1.219,1.2215,1.2174,1.23,1.2303,1.2306,1.2329,1.2334,1.234,0,0,0,0,0,1.1985,1.2023,1.2019,1.2028,1.2075,1.2113,1.2119,1.2123,1.2108,1.2127,1.2139,1.2131,1.2207,1.2187,1.2196,1.2222,1.2298,1.2302,1.2306,1.2326,1.2333,1.2339,0,0,0,0,0,0,1.2002,1.2026,1.2022,1.2069,1.2089,1.2111,1.2135,1.2131,1.2156,1.2153,1.2157,1.2163,1.2207,1.2219,1.2195,1.2272,1.2251,1.2256,1.2263,1.227,1.2275,1.2272,1.2177,0,0,0,0,0,1.2012,1.204,1.2059,1.2099,1.2109,1.2121,1.2137,1.2138,1.216,1.2168,1.2183,1.2205,1.2233,1.2252,1.228,1.233,1.2336,1.2353,1.2359,1.2363,1.2368,1.2396,1.2404,1.232,1.232,1.232,0,0,1.2031,1.2048,1.2065,1.2103,1.2119,1.2148,1.2128,1.216,1.2182,1.2173,1.2215,1.2227,1.2251,1.2298,1.232,1.2309,1.2393,1.2368,1.2371,1.2374,1.2401,1.2409,1.2416,1.2322,1.2322,1.2321,0,0,1.2082,1.2097,1.2132,1.2148,1.2173,1.218,1.2189,1.2212,1.2219,1.2261,1.2255,1.2282,1.2332,1.235,1.2365,1.2424,1.2419,1.2433,1.2462,1.249,1.2496,1.2502,1.2524,1.2532,1.2438,1.2438,1.2438,0,1.2103,1.2147,1.2151,1.2184,1.2201,1.2194,1.223,1.2246,1.2278,1.2291,1.2278,1.2341,1.2357,1.2409,1.2423,1.2436,1.2446,1.243,1.2495,1.2501,1.2507,1.2528,1.2536,1.244,1.244,1.2439,1.2439,0,1.2173,1.2203,1.2229,1.226,1.228,1.2314,1.2324,1.2344,1.2344,1.2353,1.2396,1.2415,1.2447,1.2459,1.246,1.2512,1.2505,1.2494,1.2472,1.2516,1.2536,1.2544,1.2442,1.2442,1.2441,1.2441,0,0,1.2235,1.2268,1.2278,1.2292,1.2319,1.2343,1.2378,1.2409,1.2426,1.2449,1.2479,1.2521,1.2512,1.253,1.2532,1.2557,1.2603,1.2543,1.2544,1.2554,1.2663,1.2671,1.268,1.26,1.2601,1.2602,1.2661,0,1.2288,1.2348,1.2353,1.2408,1.2437,1.2432,1.2462,1.2482,1.2492,1.2519,1.253,1.256,1.2545,1.2556,1.258,1.2592,1.2625,1.2588,1.2628,1.2629,1.2622,1.269,1.2698,1.2752,1.2669,1.267,1.2671,0,1.2358,1.2383,1.2441,1.2465,1.2477,1.2504,1.2533,1.2559,1.2582,1.2588,1.2608,1.2608,1.2644,1.2621,1.2672,1.2647,1.2664,1.2673,1.2675,1.2679,1.2653,1.2696,1.277,1.2778,1.2683,1.2682,1.2681,0,1.2398,1.2447,1.2488,1.25,1.2529,1.2548,1.2561,1.2583,1.2602,1.2628,1.264,1.267,1.2687,1.271,1.2718,1.2701,1.2769,1.2747,1.2775,1.2775,1.279,1.2789,1.2868,1.28,1.28,1.28,1.28,0,1.2458,1.2493,1.2506,1.2531,1.2571,1.2577,1.2617,1.2629,1.2649,1.2677,1.2674,1.2701,1.271,1.2738,1.2745,1.2786,1.2794,1.28,1.2801,1.28,1.2799,1.2811,1.2807,1.2802,1.2802,1.2801,1.2801,0,1.2509,1.2519,1.2563,1.2587,1.2594,1.2623,1.2644,1.2668,1.2678,1.2714,1.2723,1.2738,1.2771,1.2782,1.2822,1.2826,1.2875,1.2873,1.2867,1.2868,1.2896,1.2893,1.2985,1.2998,1.2922,1.2923,1.2923,0,1.2546,1.2573,1.26,1.2619,1.2633,1.2662,1.2682,1.2689,1.2709,1.2738,1.276,1.2793,1.2819,1.2873,1.2889,1.292,1.2919,1.2949,1.2923,1.2922,1.292,1.2918,1.2921,1.2953,1.2954,1.2955,1.2955,0,1.2611,1.2615,1.2642,1.2672,1.2695,1.2718,1.2741,1.2757,1.2767,1.279,1.2824,1.2845,1.2887,1.292,1.2952,1.2966,1.2963,1.2963,1.2972,1.2971,1.2967,1.297,1.2881,1.2961,1.2961,1.296,1.296,1.296,1.2656,1.2681,1.2704,1.2735,1.2753,1.2775,1.2799,1.2812,1.2841,1.2875,1.2878,1.2915,1.2939,1.2981,1.2997,1.3027,1.3018,1.303,1.3034,1.3036,1.3039,1.2962,1.3033,1.3033,1.3033,1.3033,1.3032,0,1.2721,1.2736,1.2765,1.2797,1.2822,1.2816,1.2842,1.2863,1.2896,1.2918,1.2945,1.2985,1.3017,1.3035,1.3068,1.3089,1.3088,1.3097,1.3096,1.3099,1.3045,1.3034,1.3097,1.3097,1.3097,1.3097,1.3097,1.3097,1.2758,1.2799,1.2806,1.2857,1.2871,1.2907,1.2923,1.2943,1.2961,1.3006,1.3033,1.3044,1.3066,1.31,1.313,1.3135,1.3147,1.3157,1.3161,1.3109,1.3103,1.3097,1.3087,1.316,1.316,1.3213,1.3214,1.3214]},{"header":{"parameterUnit":"m.s-1","parameterCategory":1,"la1":30.2991,"la2":30.254,"lo1":-89.0895,"lo2":-89.0444,"dy":0.0017,"dx":0.0017,"nx":28,"ny":28,"refTime":"2024-04-29T09:00:00:Z","depth":0,"parameterNumber":3,"parameterNumberName":"V-component_of_WINDS"},"data":[0,0,0,0,0,0,0,0,0,0,0,0,0,0,0,0,0,0,0,0,0,0,0,0,0,0,0,0,0,0,0,0,0,0,0,0,0,0,0,0,0,0,0,0,0,0,0,0,0,0,0,0,0,0,0,0,0,0,0.9308,0.9308,0,0.9319,0.9319,0.932,0.9302,0.9301,0.9301,0.93,0.9311,0.9312,0.9313,0,0,0,0,0,0,0,0,0,0,0,0,0,0.9271,0.9272,0.9308,0.9308,0.9308,0.9319,0.9319,0.932,0.9302,0.9301,0.9301,0.93,0.9311,0.9312,0.9313,0,0,0,0,0,0,0,0,0,0,0,0,0,0.9285,0.9272,0.9308,0.9301,0.93,0.9319,0.9319,0.932,0.9302,0.9301,0.93,0.93,0.9311,0.9312,0.9313,0.934,0,0,0.9317,0.9318,0,0,0,0,0,0,0,0,0.9285,0.9287,0.9302,0.9301,0.9301,0.9308,0.9311,0.9326,0.9302,0.9302,0.93,0.9299,0.9311,0.9312,0.9316,0.934,0.9341,0.9317,0.9318,0.9319,0.9319,0,0,0,0,0,0,0,0.9284,0.9286,0.9312,0.9302,0.9302,0.9297,0.9298,0.9313,0.9311,0.9302,0.93,0.9302,0.9311,0.9315,0.9317,0.9341,0.9317,0.9318,0.9319,0.932,0.9387,0.9388,0,0,0,0,0,0,0.9284,0.9286,0.9312,0.9313,0.929,0.9299,0.93,0.9307,0.9311,0.9311,0.9303,0.9301,0.9313,0.9315,0.9317,0.9348,0.9319,0.932,0.9321,0.9386,0.9387,0.9388,0,0,0,0,0,0,0.9283,0.9286,0.9312,0.9299,0.9302,0.93,0.9308,0.9308,0.9312,0.9312,0.9311,0.9308,0.9313,0.9315,0.9334,0.9348,0.9321,0.9322,0.9385,0.9386,0.9388,0.9411,0,0,0,0,0,0,0.9282,0.9286,0.9296,0.9299,0.9303,0.9329,0.9309,0.9308,0.9314,0.9312,0.9317,0.9316,0.9312,0.9332,0.9335,0.935,0.9323,0.9383,0.9385,0.9387,0.9409,0.9413,0.9417,0,0,0,0,0,0.9281,0.9302,0.9297,0.93,0.9315,0.933,0.9332,0.9327,0.9316,0.9326,0.9326,0.9316,0.9346,0.9334,0.9338,0.9353,0.9382,0.9385,0.9387,0.9407,0.9412,0.9417,0,0,0,0,0,0,0.93,0.9302,0.9296,0.9319,0.9325,0.9327,0.9339,0.9332,0.934,0.9338,0.9331,0.9333,0.9353,0.9355,0.9341,0.9378,0.9363,0.9366,0.9377,0.9382,0.9385,0.9385,0.9324,0,0,0,0,0,0.9307,0.9319,0.932,0.934,0.9343,0.9341,0.9347,0.9343,0.9348,0.935,0.9351,0.9357,0.9367,0.9374,0.9384,0.9409,0.941,0.9421,0.9425,0.9428,0.9431,0.9445,0.945,0.9396,0.9396,0.9396,0,0,0.9322,0.9325,0.9332,0.9345,0.9348,0.9361,0.9343,0.9357,0.9366,0.9352,0.9371,0.9372,0.9377,0.9399,0.9409,0.9401,0.9446,0.9431,0.9433,0.9435,0.9448,0.9453,0.9457,0.9397,0.9397,0.9397,0,0,0.9355,0.9358,0.9376,0.938,0.9385,0.9383,0.9388,0.9391,0.9391,0.941,0.94,0.941,0.9429,0.9433,0.9438,0.9473,0.9465,0.9476,0.9497,0.951,0.9515,0.9518,0.9532,0.9536,0.9479,0.9479,0.9479,0,0.9373,0.9392,0.9385,0.94,0.9406,0.9394,0.9412,0.9416,0.9424,0.9429,0.9419,0.9443,0.9445,0.9469,0.9477,0.9481,0.9486,0.9476,0.9514,0.9518,0.9522,0.9534,0.9539,0.9481,0.948,0.948,0.948,0,0.9413,0.9426,0.9439,0.9448,0.9455,0.9472,0.9468,0.9476,0.9471,0.947,0.9489,0.9492,0.9503,0.9508,0.9503,0.9531,0.9526,0.9516,0.95,0.9528,0.954,0.9545,0.9483,0.9482,0.9482,0.9481,0,0,0.9459,0.9465,0.947,0.9474,0.9479,0.9489,0.9505,0.9515,0.9523,0.9529,0.9542,0.9558,0.9549,0.9554,0.9549,0.9561,0.959,0.955,0.955,0.9558,0.9621,0.9629,0.9635,0.9584,0.9585,0.9586,0.9621,0,0.9493,0.952,0.9516,0.9542,0.9554,0.9543,0.9557,0.9562,0.9561,0.9572,0.9571,0.9583,0.957,0.9573,0.9584,0.9584,0.9603,0.9581,0.9597,0.9597,0.9597,0.9641,0.9649,0.9683,0.9625,0.9626,0.9627,0,0.9536,0.9544,0.9572,0.9576,0.9581,0.9594,0.9603,0.9613,0.9618,0.9617,0.9623,0.9616,0.9632,0.9615,0.9637,0.9623,0.9629,0.963,0.9631,0.9633,0.9614,0.9645,0.9693,0.9698,0.9634,0.9633,0.9633,0,0.9568,0.9586,0.9605,0.9609,0.9614,0.9623,0.9625,0.9629,0.9636,0.9644,0.9648,0.9658,0.9663,0.9671,0.9667,0.9655,0.969,0.9673,0.969,0.969,0.9698,0.9698,0.9749,0.9701,0.9701,0.9701,0.9701,0,0.9607,0.9624,0.962,0.9632,0.9651,0.9645,0.9665,0.9666,0.967,0.9682,0.9672,0.9683,0.9677,0.9688,0.9685,0.9704,0.9707,0.9706,0.9706,0.9708,0.9708,0.9712,0.971,0.9702,0.9702,0.9701,0.9701,0,0.9646,0.9643,0.9664,0.9667,0.9668,0.9682,0.9684,0.9696,0.9694,0.971,0.9713,0.9711,0.9724,0.9721,0.9734,0.9732,0.9756,0.9752,0.9755,0.9754,0.9771,0.977,0.9828,0.9835,0.9781,0.9782,0.9782,0,0.9671,0.9685,0.9689,0.9696,0.97,0.9711,0.9718,0.9713,0.972,0.9728,0.9738,0.975,0.9759,0.9779,0.9779,0.9789,0.9786,0.9805,0.9787,0.9789,0.9787,0.9787,0.9788,0.9809,0.981,0.981,0.9811,0,0.9716,0.9714,0.9725,0.9735,0.9743,0.9751,0.9757,0.9764,0.9759,0.9768,0.9781,0.9788,0.9802,0.9813,0.9823,0.9825,0.9818,0.9816,0.9821,0.9824,0.9825,0.9825,0.9765,0.9815,0.9815,0.9814,0.9814,0.9814,0.975,0.9761,0.9767,0.9778,0.9783,0.9789,0.98,0.98,0.9811,0.9822,0.9818,0.9833,0.9838,0.985,0.9854,0.9865,0.9858,0.9864,0.9866,0.9868,0.9871,0.9823,0.9867,0.9867,0.9866,0.9866,0.9866,0,0.9795,0.9798,0.9809,0.9819,0.9828,0.982,0.9826,0.9835,0.9848,0.9854,0.9863,0.9878,0.9889,0.989,0.9901,0.991,0.9907,0.9913,0.9913,0.9914,0.9876,0.9871,0.9916,0.9916,0.9916,0.9916,0.9916,0.9916,0.982,0.984,0.9838,0.986,0.9862,0.9877,0.9882,0.9888,0.9892,0.9909,0.9919,0.9919,0.9923,0.9934,0.9944,0.9944,0.9949,0.9957,0.9956,0.9921,0.9916,0.9912,0.9907,0.9958,0.9958,0.9992,0.9993,0.9993]}]]